| time (UTC) | temp C | wind direction | speed KPH | gust KPH | rain 1hr cm | rain 24hr cm | rain mn cm | humidity % | barometer mb |
| 20260508042404 | 10 | 157 | 0.0 | 4.8 | 0.00 | 0.00 | 0.00 | 29 | 1012.0 |
| 20260508035404 | 12 | 5 | 0.0 | 3.2 | 0.00 | 0.00 | 0.00 | 24 | 1012.0 |
| 20260508032904 | 13 | 0 | 1.6 | 8.0 | 0.00 | 0.00 | 0.00 | 20 | 1011.7 |
| 20260508031905 | 14 | 127 | 1.6 | 8.0 | 0.00 | 0.00 | 0.00 | 17 | 1011.4 |
| 20260508031404 | 15 | 179 | 1.6 | 8.0 | 0.00 | 0.00 | 0.00 | 16 | 1011.3 |
| 20260508030404 | 15 | 165 | 3.2 | 11.3 | 0.00 | 0.00 | 0.00 | 16 | 1011.0 |
| 20260508025904 | 15 | 138 | 3.2 | 4.8 | 0.00 | 0.00 | 0.00 | 15 | 1010.9 |
| 20260508024904 | 16 | 131 | 1.6 | 8.0 | 0.00 | 0.00 | 0.00 | 15 | 1010.7 |
| 20260508024404 | 16 | 149 | 3.2 | 9.7 | 0.00 | 0.00 | 0.00 | 15 | 1010.7 |
| 20260508022405 | 16 | 136 | 3.2 | 11.3 | 0.00 | 0.00 | 0.00 | 14 | 1010.7 |
| 20260508021905 | 16 | 139 | 3.2 | 9.7 | 0.00 | 0.00 | 0.00 | 14 | 1010.8 |
| 20260508021405 | 17 | 137 | 3.2 | 9.7 | 0.00 | 0.00 | 0.00 | 14 | 1010.7 |
| 20260508020904 | 17 | 129 | 4.8 | 8.0 | 0.00 | 0.00 | 0.00 | 14 | 1010.7 |
| 20260508020405 | 17 | 148 | 3.2 | 8.0 | 0.00 | 0.00 | 0.00 | 14 | 1010.7 |
| 20260508014404 | 18 | 0 | 3.2 | 8.0 | 0.00 | 0.00 | 0.00 | 13 | 1010.6 |
| 20260508012404 | 18 | 167 | 4.8 | 14.5 | 0.00 | 0.00 | 0.00 | 13 | 1010.6 |
| 20260508011405 | 19 | 149 | 4.8 | 12.9 | 0.00 | 0.00 | 0.00 | 13 | 1010.5 |
| 20260508010904 | 19 | 175 | 3.2 | 8.0 | 0.00 | 0.00 | 0.00 | 12 | 1010.5 |
| 20260508010404 | 19 | 134 | 1.6 | 8.0 | 0.00 | 0.00 | 0.00 | 12 | 1010.5 |
| 20260508005405 | 20 | 214 | 3.2 | 8.0 | 0.00 | 0.00 | 0.00 | 13 | 1010.5 |
| 20260508004904 | 20 | 160 | 3.2 | 8.0 | 0.00 | 0.00 | 0.00 | 13 | 1010.4 |
| 20260508003404 | 20 | 139 | 4.8 | 11.3 | 0.00 | 0.00 | 0.00 | 13 | 1010.6 |
| 20260508002904 | 20 | 158 | 4.8 | 11.3 | 0.00 | 0.00 | 0.00 | 13 | 1010.5 |
| 20260508002405 | 20 | 204 | 4.8 | 9.7 | 0.00 | 0.00 | 0.00 | 14 | 1010.6 |
| 20260508001404 | 20 | 158 | 3.2 | 11.3 | 0.00 | 0.00 | 0.00 | 14 | 1010.6 |
| 20260508000904 | 21 | 199 | 3.2 | 11.3 | 0.00 | 0.00 | 0.00 | 15 | 1010.6 |
| 20260508000405 | 21 | 173 | 4.8 | 11.3 | 0.00 | 0.00 | 0.00 | 15 | 1010.6 |
| 20260507233405 | 21 | 232 | 3.2 | 11.3 | 0.00 | 0.00 | 0.00 | 18 | 1010.7 |
| 20260507232905 | 21 | 263 | 1.6 | 4.8 | 0.00 | 0.00 | 0.00 | 18 | 1010.8 |
| 20260507231904 | 21 | 218 | 3.2 | 8.0 | 0.00 | 0.00 | 0.00 | 19 | 1011.1 |
| 20260507230405 | 21 | 135 | 3.2 | 12.9 | 0.00 | 0.00 | 0.00 | 18 | 1011.4 |
| 20260507224904 | 21 | 222 | 1.6 | 9.7 | 0.00 | 0.00 | 0.00 | 17 | 1011.6 |
| 20260507223405 | 21 | 63 | 3.2 | 8.0 | 0.00 | 0.00 | 0.00 | 17 | 1011.9 |
| 20260507222905 | 21 | 97 | 3.2 | 4.8 | 0.00 | 0.00 | 0.00 | 16 | 1012.0 |
| 20260507221405 | 21 | 331 | 3.2 | 4.8 | 0.00 | 0.00 | 0.00 | 17 | 1012.4 |
| 20260507220404 | 21 | 114 | 1.6 | 4.8 | 0.00 | 0.00 | 0.00 | 17 | 1012.6 |
| 20260507215904 | 21 | 312 | 3.2 | 9.7 | 0.00 | 0.00 | 0.00 | 16 | 1012.6 |
| 20260507212905 | 20 | 188 | 1.6 | 9.7 | 0.00 | 0.00 | 0.00 | 15 | 1013.2 |
| 20260507210904 | 21 | 301 | 3.2 | 12.9 | 0.00 | 0.00 | 0.00 | 16 | 1013.6 |
| 20260507205904 | 21 | 218 | 4.8 | 14.5 | 0.00 | 0.00 | 0.00 | 13 | 1013.8 |
| 20260507205404 | 21 | 290 | 3.2 | 16.1 | 0.00 | 0.00 | 0.00 | 13 | 1013.8 |
| 20260507204904 | 21 | 197 | 4.8 | 16.1 | 0.00 | 0.00 | 0.00 | 11 | 1013.9 |
| 20260507204404 | 21 | 344 | 3.2 | 11.3 | 0.00 | 0.00 | 0.00 | 13 | 1014.1 |
| 20260507203405 | 21 | 33 | 4.8 | 14.5 | 0.00 | 0.00 | 0.00 | 12 | 1014.2 |
| 20260507202905 | 21 | 261 | 4.8 | 11.3 | 0.00 | 0.00 | 0.00 | 12 | 1014.4 |
| 20260507202404 | 21 | 194 | 3.2 | 8.0 | 0.00 | 0.00 | 0.00 | 11 | 1014.5 |
| 20260507201905 | 21 | 29 | 3.2 | 14.5 | 0.00 | 0.00 | 0.00 | 14 | 1014.6 |
| 20260507201404 | 21 | 64 | 4.8 | 14.5 | 0.00 | 0.00 | 0.00 | 11 | 1014.7 |
| 20260507200904 | 21 | 268 | 3.2 | 9.7 | 0.00 | 0.00 | 0.00 | 14 | 1014.8 |
| 20260507200404 | 20 | 318 | 3.2 | 9.7 | 0.00 | 0.00 | 0.00 | 14 | 1014.8 |
| 20260507195905 | 20 | 27 | 3.2 | 9.7 | 0.00 | 0.00 | 0.00 | 11 | 1014.9 |
| 20260507195404 | 20 | 74 | 3.2 | 14.5 | 0.00 | 0.00 | 0.00 | 11 | 1015.0 |
| 20260507194904 | 20 | 300 | 3.2 | 14.5 | 0.00 | 0.00 | 0.00 | 13 | 1015.0 |
| 20260507194404 | 20 | 222 | 4.8 | 12.9 | 0.00 | 0.00 | 0.00 | 14 | 1015.0 |
| 20260507193905 | 20 | 235 | 3.2 | 11.3 | 0.00 | 0.00 | 0.00 | 16 | 1015.1 |
| 20260507192905 | 20 | 262 | 3.2 | 12.9 | 0.00 | 0.00 | 0.00 | 13 | 1015.2 |
| 20260507192405 | 19 | 324 | 3.2 | 12.9 | 0.00 | 0.00 | 0.00 | 14 | 1015.2 |
| 20260507190904 | 19 | 269 | 3.2 | 12.9 | 0.00 | 0.00 | 0.00 | 15 | 1015.4 |
| 20260507184405 | 18 | 288 | 3.2 | 19.3 | 0.00 | 0.00 | 0.00 | 19 | 1015.8 |
| 20260507183904 | 18 | 247 | 6.4 | 19.3 | 0.00 | 0.00 | 0.00 | 18 | 1015.9 |
| 20260507183404 | 18 | 326 | 4.8 | 19.3 | 0.00 | 0.00 | 0.00 | 20 | 1016.0 |
| 20260507181904 | 17 | 347 | 3.2 | 8.0 | 0.00 | 0.00 | 0.00 | 21 | 1016.3 |
| 20260507181404 | 17 | 9 | 1.6 | 8.0 | 0.00 | 0.00 | 0.00 | 25 | 1016.4 |
| 20260507175404 | 16 | 210 | 3.2 | 12.9 | 0.00 | 0.00 | 0.00 | 26 | 1016.8 |
| 20260507174904 | 16 | 323 | 3.2 | 12.9 | 0.00 | 0.00 | 0.00 | 27 | 1016.9 |
| 20260507172405 | 15 | 312 | 3.2 | 9.7 | 0.00 | 0.00 | 0.00 | 33 | 1017.1 |
| 20260507171404 | 14 | 308 | 3.2 | 11.3 | 0.00 | 0.00 | 0.00 | 38 | 1017.3 |
| 20260507163904 | 11 | 287 | 3.2 | 9.7 | 0.00 | 0.00 | 0.00 | 46 | 1017.9 |
| 20260507162905 | 11 | 281 | 3.2 | 12.9 | 0.00 | 0.00 | 0.00 | 49 | 1018.2 |
| 20260507162406 | 10 | 308 | 3.2 | 4.8 | 0.00 | 0.00 | 0.00 | 51 | 1018.4 |
| 20260507161905 | 10 | 1 | 3.2 | 4.8 | 0.00 | 0.00 | 0.00 | 52 | 1018.5 |
| 20260507160404 | 9 | 299 | 1.6 | 12.9 | 0.00 | 0.00 | 0.00 | 56 | 1018.7 |
| 20260507155904 | 8 | 6 | 3.2 | 12.9 | 0.00 | 0.00 | 0.00 | 57 | 1018.8 |
| 20260507154904 | 8 | 319 | 1.6 | 8.0 | 0.00 | 0.00 | 0.00 | 63 | 1019.0 |
| 20260507153905 | 7 | 7 | 1.6 | 9.7 | 0.00 | 0.00 | 0.00 | 63 | 1019.1 |
| 20260507151904 | 7 | 267 | 3.2 | 9.7 | 0.00 | 0.00 | 0.00 | 66 | 1019.0 |
| 20260507150905 | 6 | 242 | 3.2 | 9.7 | 0.00 | 0.00 | 0.00 | 68 | 1019.0 |
| 20260507145405 | 5 | 241 | 1.6 | 9.7 | 0.00 | 0.00 | 0.00 | 71 | 1019.0 |
| 20260507144904 | 5 | 234 | 3.2 | 9.7 | 0.00 | 0.00 | 0.00 | 72 | 1019.0 |
| 20260507143405 | 5 | 233 | 3.2 | 4.8 | 0.00 | 0.00 | 0.00 | 75 | 1019.2 |
| 20260507142904 | 4 | 333 | 1.6 | 4.8 | 0.00 | 0.00 | 0.00 | 77 | 1019.3 |
| 20260507141904 | 3 | 321 | 1.6 | 4.8 | 0.00 | 0.00 | 0.00 | 79 | 1019.5 |
| 20260507140904 | 3 | 262 | 3.2 | 8.0 | 0.00 | 0.00 | 0.00 | 80 | 1019.7 |
| 20260507135905 | 3 | 191 | 0.0 | 3.2 | 0.00 | 0.00 | 0.00 | 83 | 1019.8 |
| 20260507135405 | 2 | 141 | 0.0 | 3.2 | 0.00 | 0.00 | 0.00 | 84 | 1019.9 |
| 20260507134904 | 2 | 141 | 1.6 | 3.2 | 0.00 | 0.00 | 0.00 | 84 | 1019.8 |
| 20260507133905 | 1 | 0 | 1.6 | 3.2 | 0.00 | 0.00 | 0.00 | 85 | 1019.7 |
| 20260507131906 | 0 | 141 | 1.6 | 4.8 | 0.00 | 0.00 | 0.00 | 86 | 1019.6 |
| 20260507130405 | -1 | 141 | 1.6 | 4.8 | 0.00 | 0.00 | 0.00 | 87 | 1019.8 |
| 20260507124404 | -1 | 141 | 0.0 | 0.0 | 0.00 | 0.00 | 0.00 | 87 | 1019.7 |
| 20260507123904 | -1 | 141 | 0.0 | 1.6 | 0.00 | 0.00 | 0.00 | 86 | 1019.7 |
| 20260507123405 | -1 | 141 | 0.0 | 1.6 | 0.00 | 0.00 | 0.00 | 86 | 1019.6 |
| 20260507121905 | -1 | 141 | 0.0 | 1.6 | 0.00 | 0.00 | 0.00 | 86 | 1019.8 |
| 20260507115404 | -1 | 141 | 0.0 | 0.0 | 0.00 | 0.00 | 0.00 | 85 | 1019.7 |
| 20260507114905 | -1 | 141 | 0.0 | 0.0 | 0.00 | 0.00 | 0.00 | 85 | 1019.7 |
| 20260507113404 | -1 | 141 | 0.0 | 0.0 | 0.00 | 0.00 | 0.00 | 85 | 1019.6 |
| 20260507112904 | -1 | 141 | 0.0 | 0.0 | 0.00 | 0.00 | 0.00 | 85 | 1019.5 |
| 20260507111905 | -1 | 141 | 0.0 | 1.6 | 0.00 | 0.00 | 0.00 | 84 | 1019.1 |
| 20260507111405 | -1 | 141 | 0.0 | 1.6 | 0.00 | 0.00 | 0.00 | 84 | 1019.1 |
| 20260507105404 | 0 | 141 | 0.0 | 1.6 | 0.00 | 0.00 | 0.00 | 84 | 1019.0 |
| 20260507104904 | 0 | 141 | 0.0 | 1.6 | 0.00 | 0.00 | 0.00 | 84 | 1019.0 |
| 20260507103904 | 0 | 141 | 0.0 | 1.6 | 0.00 | 0.00 | 0.00 | 83 | 1019.1 |
| 20260507103405 | 0 | 141 | 0.0 | 1.6 | 0.00 | 0.00 | 0.00 | 83 | 1019.1 |
| 20260507102905 | 0 | 141 | 0.0 | 3.2 | 0.00 | 0.00 | 0.00 | 83 | 1019.0 |
| 20260507102404 | 0 | 141 | 0.0 | 3.2 | 0.00 | 0.00 | 0.00 | 83 | 1019.1 |
| 20260507101904 | 0 | 141 | 0.0 | 4.8 | 0.00 | 0.00 | 0.00 | 83 | 1019.1 |
| 20260507100904 | 0 | 141 | 1.6 | 4.8 | 0.00 | 0.00 | 0.00 | 83 | 1019.0 |
| 20260507095904 | 0 | 141 | 1.6 | 4.8 | 0.00 | 0.00 | 0.00 | 83 | 1019.0 |
| 20260507093405 | 0 | 141 | 1.6 | 4.8 | 0.00 | 0.00 | 0.00 | 82 | 1019.1 |
| 20260507091905 | 0 | 141 | 0.0 | 4.8 | 0.00 | 0.00 | 0.00 | 82 | 1019.0 |
| 20260507090905 | 0 | 141 | 1.6 | 4.8 | 0.00 | 0.00 | 0.00 | 82 | 1019.1 |
| 20260507090404 | 0 | 141 | 3.2 | 4.8 | 0.00 | 0.00 | 0.00 | 82 | 1018.9 |
| 20260507085904 | 0 | 141 | 0.0 | 0.0 | 0.00 | 0.00 | 0.00 | 81 | 1019.0 |
| 20260507085404 | 0 | 141 | 0.0 | 3.2 | 0.00 | 0.00 | 0.00 | 81 | 1018.9 |
| 20260507083404 | 0 | 141 | 0.0 | 3.2 | 0.00 | 0.00 | 0.00 | 81 | 1018.8 |
| 20260507082905 | 0 | 141 | 0.0 | 3.2 | 0.00 | 0.00 | 0.00 | 81 | 1018.7 |
| 20260507082404 | 0 | 141 | 0.0 | 3.2 | 0.00 | 0.00 | 0.00 | 81 | 1018.8 |
| 20260507081904 | 0 | 141 | 1.6 | 4.8 | 0.00 | 0.00 | 0.00 | 82 | 1018.7 |
| 20260507081404 | 0 | 141 | 3.2 | 4.8 | 0.00 | 0.00 | 0.00 | 83 | 1018.7 |
| 20260507080404 | 0 | 140 | 4.8 | 11.3 | 0.00 | 0.00 | 0.00 | 83 | 1018.5 |
| 20260507075905 | 0 | 126 | 3.2 | 4.8 | 0.00 | 0.00 | 0.00 | 84 | 1018.5 |
| 20260507074904 | 0 | 108 | 1.6 | 3.2 | 0.00 | 0.00 | 0.00 | 83 | 1018.4 |
| 20260507073905 | 0 | 108 | 0.0 | 0.0 | 0.00 | 0.00 | 0.00 | 83 | 1018.3 |
| 20260507072905 | 0 | 108 | 0.0 | 0.0 | 0.00 | 0.00 | 0.00 | 82 | 1018.1 |
| 20260507071904 | 0 | 108 | 0.0 | 4.8 | 0.00 | 0.00 | 0.00 | 83 | 1018.0 |
| 20260507071404 | 0 | 108 | 0.0 | 4.8 | 0.00 | 0.00 | 0.00 | 83 | 1017.9 |
| 20260507070904 | 0 | 105 | 3.2 | 4.8 | 0.00 | 0.00 | 0.00 | 83 | 1017.8 |
| 20260507070404 | 0 | 82 | 1.6 | 3.2 | 0.00 | 0.00 | 0.00 | 82 | 1017.8 |
| 20260507065905 | 0 | 82 | 0.0 | 0.0 | 0.00 | 0.00 | 0.00 | 82 | 1017.8 |
| 20260507065404 | 0 | 82 | 0.0 | 1.6 | 0.00 | 0.00 | 0.00 | 82 | 1017.7 |
| 20260507061904 | 0 | 82 | 0.0 | 0.0 | 0.00 | 0.00 | 0.00 | 82 | 1017.4 |
| 20260507061405 | 1 | 82 | 0.0 | 0.0 | 0.00 | 0.00 | 0.00 | 82 | 1017.4 |
| 20260507060905 | 1 | 82 | 0.0 | 0.0 | 0.00 | 0.00 | 0.00 | 81 | 1017.3 |
| 20260507055405 | 1 | 82 | 0.0 | 0.0 | 0.00 | 0.00 | 0.00 | 81 | 1017.1 |
| 20260507054904 | 1 | 82 | 0.0 | 0.0 | 0.00 | 0.00 | 0.00 | 80 | 1017.0 |
| 20260507054404 | 1 | 82 | 0.0 | 0.0 | 0.00 | 0.00 | 0.00 | 80 | 1017.0 |
| 20260507053904 | 1 | 82 | 0.0 | 0.0 | 0.00 | 0.00 | 0.00 | 79 | 1016.9 |
| 20260507053405 | 1 | 82 | 0.0 | 0.0 | 0.00 | 0.00 | 0.00 | 79 | 1016.9 |
| 20260507052904 | 2 | 82 | 0.0 | 0.0 | 0.00 | 0.00 | 0.00 | 78 | 1016.9 |
| 20260507051405 | 2 | 82 | 0.0 | 0.0 | 0.00 | 0.00 | 0.00 | 77 | 1016.7 |
| 20260507050905 | 2 | 82 | 0.0 | 3.2 | 0.00 | 0.00 | 0.00 | 77 | 1016.7 |
| 20260507050404 | 2 | 82 | 0.0 | 3.2 | 0.00 | 0.00 | 0.00 | 76 | 1016.7 |
| 20260507045905 | 3 | 82 | 1.6 | 3.2 | 0.00 | 0.00 | 0.00 | 75 | 1016.6 |
| 20260507045404 | 3 | 82 | 0.0 | 0.0 | 0.00 | 0.00 | 0.00 | 75 | 1016.5 |
| 20260507044904 | 3 | 82 | 0.0 | 0.0 | 0.00 | 0.00 | 0.00 | 74 | 1016.5 |
| 20260507044404 | 3 | 82 | 0.0 | 0.0 | 0.00 | 0.00 | 0.00 | 73 | 1016.3 |